Location: Austin
(30.3000°N, 97.7500°W)
Time: 11:15:25
(UTC-05:00)

Cosmos 2292 Rocket - Pass Details

Date: 05 September 2024
Orbit: 371 x 1322 km, 83.0° (Epoch: 10 September)

Event Time Altitude Azimuth Distance (km) Brightness Sun altitude
Rises 20:46:13 0° 359° (N) 2,899 7.2 -13.1°
Reaches altitude 10° 20:48:43 10° 4° (N) 1,842 6.1 -13.6°
Maximum altitude 20:52:34 53° 81° (E) 587 3.1 -14.4°
Enters shadow 20:54:36 20° 153° (SSE) 1,065 4.4 -14.9°
